Satellite: MET-2/21 Catalog number: 22782 Epoch time: 10210.52260606 Element set: 842 Inclination: 082.5442 deg RA of node: 218.8519 deg Eccentricity: 0.0020741 Arg of perigee: 285.6050 deg Mean anomaly: 074.2835 deg Mean motion: 13.83645734 rev/day Decay rate: 3.5e-07 rev/day^2 Epoch rev: 85393 Checksum: 290
Satellite: OKEAN-4 Catalog number: 23317 Epoch time: 10209.68704178 Element set: 0298 Inclination: 082.5431 deg RA of node: 315.1229 deg Eccentricity: 0.0023884 Arg of perigee: 104.0278 deg Mean anomaly: 256.3570 deg Mean motion: 14.82840466 rev/day Decay rate: 3.45e-06 rev/day^2 Epoch rev: 85260 Checksum: 299
Satellite: NOAA-14 Catalog number: 23455 Epoch time: 10209.68483216 Element set: 0142 Inclination: 098.8772 deg RA of node: 290.1377 deg Eccentricity: 0.0010201 Arg of perigee: 115.6143 deg Mean anomaly: 244.6097 deg Mean motion: 14.13790121 rev/day Decay rate: -2.8e-07 rev/day^2 Epoch rev: 80336 Checksum: 279
Satellite: NOAA-15 Catalog number: 25338 Epoch time: 10209.72606656 Element set: 0464 Inclination: 098.6212 deg RA of node: 195.9107 deg Eccentricity: 0.0009930 Arg of perigee: 318.6546 deg Mean anomaly: 041.3880 deg Mean motion: 14.24843510 rev/day Decay rate: 2.8e-07 rev/day^2 Epoch rev: 63466 Checksum: 307
Satellite: RESURS Catalog number: 25394 Epoch time: 10209.65768786 Element set: 0565 Inclination: 098.3046 deg RA of node: 225.4797 deg Eccentricity: 0.0002493 Arg of perigee: 091.2430 deg Mean anomaly: 268.9037 deg Mean motion: 14.24206539 rev/day Decay rate: -1.5e-07 rev/day^2 Epoch rev: 62625 Checksum: 316
Satellite: FENGYUN1 Catalog number: 25730 Epoch time: 10209.87110334 Element set: 0100 Inclination: 098.7857 deg RA of node: 173.7405 deg Eccentricity: 0.0022310 Arg of perigee: 144.9640 deg Mean anomaly: 215.2987 deg Mean motion: 14.08222558 rev/day Decay rate: 9.31e-06 rev/day^2 Epoch rev: 57755 Checksum: 287
Satellite: OKEAN-0 Catalog number: 25860 Epoch time: 10210.71785036 Element set: 59 Inclination: 097.8355 deg RA of node: 181.9779 deg Eccentricity: 0.0000960 Arg of perigee: 046.1245 deg Mean anomaly: 314.0039 deg Mean motion: 14.73651322 rev/day Decay rate: 4.6e-07 rev/day^2 Epoch rev: 59316 Checksum: 291
Satellite: NOAA-16 Catalog number: 26536 Epoch time: 10209.66316794 Element set: 0941 Inclination: 099.1694 deg RA of node: 228.1082 deg Eccentricity: 0.0009941 Arg of perigee: 217.5111 deg Mean anomaly: 142.5357 deg Mean motion: 14.12571040 rev/day Decay rate: 1.78e-06 rev/day^2 Epoch rev: 50768 Checksum: 303
Satellite: NOAA-17 Catalog number: 27453 Epoch time: 10209.72843161 Element set: 0938 Inclination: 098.4289 deg RA of node: 258.4942 deg Eccentricity: 0.0012038 Arg of perigee: 021.1400 deg Mean anomaly: 339.0265 deg Mean motion: 14.24177325 rev/day Decay rate: 2.00e-06 rev/day^2 Epoch rev: 42061 Checksum: 278
Satellite: NOAA-18 Catalog number: 28654 Epoch time: 10209.77236527 Element set: 0423 Inclination: 098.9516 deg RA of node: 155.9205 deg Eccentricity: 0.0013508 Arg of perigee: 298.5873 deg Mean anomaly: 061.3944 deg Mean motion: 14.11374774 rev/day Decay rate: 2.18e-06 rev/day^2 Epoch rev: 26730 Checksum: 323
Satellite: NOAA-19 Catalog number: 33591 Epoch time: 10209.76948770 Element set: 0621 Inclination: 098.7897 deg RA of node: 151.0096 deg Eccentricity: 0.0014195 Arg of perigee: 167.4939 deg Mean anomaly: 192.6607 deg Mean motion: 14.11068911 rev/day Decay rate: -7.1e-07 rev/day^2 Epoch rev: 07577 Checksum: 338
/EX SB KEPS @ AMSAT $ORB10210.M Orbital Elements 10210.MISC
HR AMSAT ORBITAL ELEMENTS FOR MANNED AND MISCELLANEOUS SATELLITES FROM WA5QGD FORT WORTH,TX July 29, 2010 Send Subscribe/unsubscribe to KEPS at http://www.amsat.org/mailman/listinfo/keps BID: ORB10210.M TO ALL RADIO AMATEURS BT
Satellite: HUBBLE Catalog number: 20580 Epoch time: 10209.73785346 Element set: 611 Inclination: 028.4699 deg RA of node: 328.5983 deg Eccentricity: 0.0003223 Arg of perigee: 280.9802 deg Mean anomaly: 079.0485 deg Mean motion: 15.01004457 rev/day Decay rate: 4.55e-06 rev/day^2 Epoch rev: 91100 Checksum: 287
Satellite: ISS Catalog number: 25544 Epoch time: 10210.98143638 Element set: 608 Inclination: 051.6458 deg RA of node: 011.5880 deg Eccentricity: 0.0007700 Arg of perigee: 162.4749 deg Mean anomaly: 289.0405 deg Mean motion: 15.71338800 rev/day Decay rate: 1.1375e-04 rev/day^2 Epoch rev: 67020 Checksum: 282
Satellite: CO-58 Catalog number: 28895 Epoch time: 10210.68088673 Element set: 643 Inclination: 098.0089 deg RA of node: 093.7390 deg Eccentricity: 0.0018527 Arg of perigee: 149.2671 deg Mean anomaly: 210.9613 deg Mean motion: 14.59914421 rev/day Decay rate: 2.09e-06 rev/day^2 Epoch rev: 25318 Checksum: 328
Satellite: FALCON Catalog number: 30776 Epoch time: 10211.04036157 Element set: 881 Inclination: 035.4323 deg RA of node: 144.1096 deg Eccentricity: 0.0001070 Arg of perigee: 247.2813 deg Mean anomaly: 112.7796 deg Mean motion: 15.03731875 rev/day Decay rate: 7.27e-06 rev/day^2 Epoch rev: 18651 Checksum: 270
Satellite: MAST Catalog number: 31126 Epoch time: 10209.59237586 Element set: 0925 Inclination: 097.9359 deg RA of node: 249.4581 deg Eccentricity: 0.0095666 Arg of perigee: 097.3456 deg Mean anomaly: 263.8619 deg Mean motion: 14.53604808 rev/day Decay rate: 2.3e-07 rev/day^2 Epoch rev: 17407 Checksum: 335
Satellite: CAPE1 Catalog number: 31130 Epoch time: 10209.06394437 Element set: 0945 Inclination: 097.9358 deg RA of node: 246.2854 deg Eccentricity: 0.0104040 Arg of perigee: 107.3307 deg Mean anomaly: 253.9424 deg Mean motion: 14.52202868 rev/day Decay rate: 3.31e-06 rev/day^2 Epoch rev: 17359 Checksum: 285
Satellite: COMPASS Catalog number: 32787 Epoch time: 10209.28960679 Element set: 0735 Inclination: 097.8923 deg RA of node: 273.4782 deg Eccentricity: 0.0016360 Arg of perigee: 148.0261 deg Mean anomaly: 212.1916 deg Mean motion: 14.81919373 rev/day Decay rate: 5.86e-06 rev/day^2 Epoch rev: 12158 Checksum: 323
Satellite: AAUSAT2 Catalog number: 32788 Epoch time: 10209.62624064 Element set: 0729 Inclination: 097.8928 deg RA of node: 273.9476 deg Eccentricity: 0.0015981 Arg of perigee: 147.8300 deg Mean anomaly: 212.3922 deg Mean motion: 14.82065916 rev/day Decay rate: 8.79e-06 rev/day^2 Epoch rev: 12164 Checksum: 328
Satellite: DO-64 Catalog number: 32789 Epoch time: 10209.69838449 Element set: 0748 Inclination: 097.8990 deg RA of node: 274.5387 deg Eccentricity: 0.0016386 Arg of perigee: 146.3269 deg Mean anomaly: 213.8967 deg Mean motion: 14.82227774 rev/day Decay rate: 9.33e-06 rev/day^2 Epoch rev: 12165 Checksum: 374
Satellite: CO-66 Catalog number: 32791 Epoch time: 10209.18254145 Element set: 0730 Inclination: 097.8941 deg RA of node: 273.3828 deg Eccentricity: 0.0016384 Arg of perigee: 146.7635 deg Mean anomaly: 213.4597 deg Mean motion: 14.81695923 rev/day Decay rate: 6.9e-07 rev/day^2 Epoch rev: 12152 Checksum: 327
Satellite: RS-30 Catalog number: 32953 Epoch time: 10210.86914435 Element set: 909 Inclination: 082.5013 deg RA of node: 003.1306 deg Eccentricity: 0.0019041 Arg of perigee: 012.8718 deg Mean anomaly: 347.2847 deg Mean motion: 12.43006888 rev/day Decay rate: 1.0e-07 rev/day^2 Epoch rev: 9904 Checksum: 270
Satellite: TACSAT-3 Catalog number: 35001 Epoch time: 10210.72639035 Element set: 345 Inclination: 040.4562 deg RA of node: 318.5197 deg Eccentricity: 0.0022344 Arg of perigee: 321.8881 deg Mean anomaly: 038.0354 deg Mean motion: 15.42138472 rev/day Decay rate: 4.490e-05 rev/day^2 Epoch rev: 6720 Checksum: 265
Satellite: PHARMSAT Catalog number: 35002 Epoch time: 10210.66614138 Element set: 326 Inclination: 040.4704 deg RA of node: 316.7328 deg Eccentricity: 0.0025281 Arg of perigee: 324.9346 deg Mean anomaly: 034.9810 deg Mean motion: 15.42627659 rev/day Decay rate: 4.399e-05 rev/day^2 Epoch rev: 6721 Checksum: 279
Satellite: HAWKSAT1 Catalog number: 35003 Epoch time: 10209.71041614 Element set: 348 Inclination: 040.4604 deg RA of node: 316.0175 deg Eccentricity: 0.0023564 Arg of perigee: 335.9357 deg Mean anomaly: 024.0354 deg Mean motion: 15.46045923 rev/day Decay rate: 9.349e-05 rev/day^2 Epoch rev: 6714 Checksum: 267
Satellite: CP6 Catalog number: 35004 Epoch time: 10209.68348967 Element set: 345 Inclination: 040.4624 deg RA of node: 314.9241 deg Eccentricity: 0.0022385 Arg of perigee: 338.9135 deg Mean anomaly: 021.0753 deg Mean motion: 15.46999715 rev/day Decay rate: 1.1431e-04 rev/day^2 Epoch rev: 6714 Checksum: 298
Satellite: AEROCUB3 Catalog number: 35005 Epoch time: 10209.64446964 Element set: 0397 Inclination: 040.4653 deg RA of node: 310.4925 deg Eccentricity: 0.0021020 Arg of perigee: 358.6152 deg Mean anomaly: 001.4603 deg Mean motion: 15.53714712 rev/day Decay rate: 3.8014e-04 rev/day^2 Epoch rev: 06719 Checksum: 267
Satellite: CASTOR Catalog number: 35694 Epoch time: 10210.73514875 Element set: 599 Inclination: 051.6290 deg RA of node: 330.7188 deg Eccentricity: 0.0006024 Arg of perigee: 339.7601 deg Mean anomaly: 020.3092 deg Mean motion: 16.13834798 rev/day Decay rate: 2.68297e-03 rev/day^2 Epoch rev: 5790 Checksum: 315
Satellite: METEOR-M Catalog number: 35865 Epoch time: 10210.99059917 Element set: 513 Inclination: 098.7550 deg RA of node: 264.4777 deg Eccentricity: 0.0001527 Arg of perigee: 248.3927 deg Mean anomaly: 111.7083 deg Mean motion: 14.21831100 rev/day Decay rate: 1.76e-06 rev/day^2 Epoch rev: 4480 Checksum: 292
Satellite: RS-38 Catalog number: 35869 Epoch time: 10210.67600278 Element set: 524 Inclination: 098.7538 deg RA of node: 264.2002 deg Eccentricity: 0.0003769 Arg of perigee: 241.3337 deg Mean anomaly: 118.7444 deg Mean motion: 14.21985582 rev/day Decay rate: 1.77e-06 rev/day^2 Epoch rev: 4476 Checksum: 317
/EX